Orbital Elements at Epoch 2459200.5 (2020-Dec-17.0) TDB
Reference: JPL 28 (heliocentric ecliptic J2000)
Element | Value | Uncertainty (1-sigma) | Units |
e | .1512912766820811 | 3.027e-08 | |
a | 2.34338110870484 | 7.38e-09 | au |
q | 1.988847989016214 | 7.3074e-08 | au |
i | 7.157720851884169 | 3.8049e-06 | deg |
node | 19.29440108920392 | 2.5336e-05 | deg |
peri | 287.5370003117055 | 2.838e-05 | deg |
M | .3832428261832104 | 1.2762e-05 | deg |
tp | 2459199.105128030527 (2020-Dec-15.60512803) | 4.6449e-05 | TDB |
period | 1310.276082689402 3.59 | 6.1897e-06 1.695e-08 | d yr |
n | .2747512564383252 | 1.2979e-09 | deg/d |
Q | 2.697914228393465 | 8.4966e-09 | au |
|
| | Orbit Determination Parameters
Additional Information
|